Voltar ao catálogo

STARLINK-11593

AtivoComunicaçõesVLEO
NORAD 63318·PAYLOAD·🇺🇸 United States

Lançado Mar 18, 2025 de Cape Canaveral Space Force Station

Loading…

Próximas Passagens (próximas 24 horas)

TLE

AtualizadoSource: CelesTrak SupGP

Época: Sep 15, 2026, 03:34 UTC

1 63318C 25057M   26258.14909722 -.00039341  00000+0 -30557-3 0  2589
2 63318  43.0007 202.2734 0001517 273.5333 226.8221 15.70857050    19

Acompanhe STARLINK-11593 em tempo real com AllMySat

Download on the App Store